Regional Weather Roundup
Issued by NWS

Home | Current Version | Previous Version | Text Only | Print | Product List | Glossary On
Versions: 1 2 3 4 5 6 7 8 9 10 11 12 13 14 15 16 17 18 19 20 21 22 23 24 25 26 27 28 29 30 31 32 33 34 35 36 37 38 39 40 41 42 43 44 45 46 47 48 49 50
000
ASUS43 KTOP 290459
RWRKS

WEATHER ROUNDUP FOR KANSAS
NATIONAL WEATHER SERVICE GOODLAND KS
1200 AM CDT THU JUN 29 2017

NOTE:  "FAIR" INDICATES FEW OR NO CLOUDS BELOW 12,000 FEET WITH NO
SIGNIFICANT WEATHER AND/OR OBSTRUCTIONS TO VISIBILITY.

KSZ001>006-013>018-027>032-041>047-290600-
NORTHWEST KANSAS

CITY           SKY/WX    TMP DP  RH WIND       PRES   REMARKS
GOODLAND       CLOUDY    70  59  68 NE8       29.81S
HAYS           CLEAR     80  65  59 S14       29.70S
HILL CITY      CLOUDY    76  61  59 NE12      29.73R
RUSSELL        CLEAR     82  63  52 S21G30    29.69S
$$

KSZ061>065-074>080-084>089-290600-
SOUTHWEST KANSAS

CITY           SKY/WX    TMP DP  RH WIND       PRES   REMARKS
DODGE CITY     CLEAR     79  64  60 S18       29.74R
ELKHART          N/A     79  52  39 S21         N/A
GARDEN CITY    CLEAR     77  61  57 SE10      29.73R
GREAT BEND     CLEAR     81  65  58 S22       29.70F
LIBERAL        CLEAR     81  59  47 S23       29.72S
$$

KSZ066>073-081>083-090>101-290600-
SOUTHEAST KANSAS

CITY           SKY/WX    TMP DP  RH WIND       PRES   REMARKS
CHANUTE        CLEAR     79  67  66 S15       29.81F
COFFEYVILLE    HAZE      78  68  71 S12       29.83R VSB 1/2
HUTCHINSON     CLEAR     82  64  54 S20G29    29.74R
MEDICINE LODGE   N/A     80  65  59 S15G22    29.74F
NEWTON         CLEAR     80  65  59 S23       29.76S
PARSONS        CLEAR     78  67  68 S8        29.84R
WICHITA INTL   PTCLDY    80  66  62 S18G28    29.76S
WICHITA JABRA  CLEAR     80  65  59 S18G25    29.76F
WINFIELD       CLEAR     78  66  66 S17       29.80F
$$

KSZ007>012-019>026-033>040-048>060-102>105-290600-
NORTHEAST KANSAS

CITY           SKY/WX    TMP DP  RH WIND       PRES   REMARKS
CONCORDIA      CLOUDY    70  68  93 N9        29.78R THUNDER
EMPORIA        CLEAR     78  67  68 S17G29    29.77R
LAWRENCE       MOCLDY    80  69  69 S18G25    29.76R
MANHATTAN      CLOUDY    83  67  58 S15       29.71R
OLATHE IND     CLEAR     78  67  68 S18G30    29.79S
OLATHE EXE     CLEAR     78  68  71 S17G28    29.79S
SALINA         CLEAR     84  64  50 S14G22    29.69S
TOPEKA BILLARD CLOUDY    82  69  64 S15G24    29.74R
TOPEKA FORBES  CLEAR     82  69  64 S14       29.76R
$$




USA.gov is the U.S. government's official web portal to all federal, state and local government web resources and services.